This demonstration page uses our WeatherBlox Daily Observations layout. Learn more.

Left ArrowRight Arrow

Hourly Observations for June 16, 2017

Temp ( °F °C ) Dew Point ( °F °C ) Humidity (%) Winds ( mph kmh ) Pressure ( in mb ) Visibility ( mi km ) Precip ( " mm )
12:56 am 00:56 Clear 71 21.7 67 19.6 88 88 SE 9 15 29.79 1009 10 16 0.00 0.00
1:56 am 01:56 Clear 71 21.5 65 18.1 81 81 S 9 15 29.79 1009 10 16 0.00 0.00
2:56 am 02:56 Clear 70 21.2 64 18 82 82 SSE 5 7 29.78 1009 10 16 0.00 0.00
3:56 am 03:56 Clear 70 21 63 17.2 79 79 SSE 3 6 29.79 1009 10 16 0.00 0.00
4:56 am 04:56 Clear 67 19.7 62 16.9 84 84 Calm 29.79 1009 10 16 0.00 0.00
5:56 am 05:56 Sunny 67 19.5 62 16.9 85 85 SSE 5 7 29.79 1009 10 16 0.00 0.00
6:56 am 06:56 Sunny 69 20.5 64 17.5 83 83 S 6 9 29.80 1009 10 16 0.00 0.00
7:56 am 07:56 Mostly Sunny 71 21.5 64 17.9 80 80 SSE 7 11 29.79 1009 10 16 0.00 0.00
8:56 am 08:56 Mostly Sunny 73 22.7 63 17.1 71 71 S 8 13 29.79 1009 10 16 0.00 0.00
9:56 am 09:56 Mostly Sunny 76 24.6 63 17.3 64 64 S 8 13 29.78 1008 10 16 0.00 0.00
10:56 am 10:56 Mostly Sunny 79 26.3 65 18.2 61 61 S 9 15 29.76 1008 10 16 0.00 0.00
11:56 am 11:56 Sunny 82 27.9 66 18.8 58 58 SSE 10 17 29.72 1007 10 16 0.00 0.00
12:56 pm 12:56 Sunny 84 29 67 19.3 56 56 SSE 12 19 29.72 1006 10 16 0.00 0.00
1:56 pm 13:56 Mostly Sunny 86 30 68 20.2 56 56 SSE 10 17 29.69 1006 9 14 0.00 0.00
2:56 pm 14:56 Sunny 88 31.1 69 20.7 54 54 ESE 13 20 29.65 1004 10 16 0.00 0.00
3:56 pm 15:56 Mostly Sunny 89 31.7 71 21.5 55 55 SSE 14 22 29.62 1003 10 16 0.00 0.00
4:56 pm 16:56 Sunny 89 31.5 72 22.2 58 58 SSE 14 22 29.59 1002 10 16 0.00 0.00
5:56 pm 17:56 Sunny 88 31.2 72 22.2 59 59 SE 14 22 29.55 1001 10 16 0.00 0.00
6:31 pm 18:31 Mostly Cloudy with Thunderstorms 86 30 72 22 62 62 ESE 7 11 29.57 1001 10 16 0.00 0.00
6:46 pm 18:46 Mostly Cloudy with Thunderstorms 86 30 72 22 62 62 E 7 11 29.57 1001 10 16 0.00 0.00
6:56 pm 18:56 Cloudy with Thunderstorms 84 29.1 73 22.5 68 68 E 8 13 29.57 1001 10 16 0.00 0.00
7:02 pm 19:02 Cloudy with Nearby Thunderstorms 84 29 72 22 66 66 E 8 13 29.55 1001 10 16 0.00 0.00
7:15 pm 19:15 Cloudy with Light Rain 84 29 72 22 66 66 E 8 13 29.54 1001 10 16 0.00 0.00
7:34 pm 19:34 Partly Cloudy with Thunderstorms 82 28 73 23 74 74 ESE 16 26 29.49 999 10 16 0.00 0.00
7:56 pm 19:56 Cloudy with Thunderstorms 82 27.7 73 22.6 74 74 E 15 24 29.46 998 10 16 0.00 0.03
8:02 pm 20:02 Sunny with Thunderstorms 81 27 73 23 79 79 NE 14 22 29.45 997 8 13 0.00 0.00
9:12 pm 21:12 Mostly Cloudy with Thunderstorms 73 23 70 21 89 89 S 7 11 29.74 1007 7 11 0.00 0.00
9:42 pm 21:42 Mostly Cloudy with Nearby Thunderstorms 72 22 70 21 94 94 S 6 9 29.74 1007 7 11 0.00 0.00
9:56 pm 21:56 Mostly Cloudy 70 21 68 20 94 94 NNE 6 9 29.67 1005 7 11 0.00 0.00
10:56 pm 22:56 Mostly Cloudy 72 22 66 19 83 83 NE 6 9 29.68 1005 7 11 0.00 0.00
11:56 pm 23:56 Mostly Cloudy 70 21 64 18 83 83 S 3 6 29.67 1005 7 11 0.00 0.00

Powered by AerisWeather